FRS131 EDDW-EDDH

Flight info

Callsign FRS131
Flight time 0h 35m
Altitude 3500
Route DCT
Aircraft C208/L-SDFGR/C

Departure

Time 2026-05-05 15:44
Airport Bremen Airport (EDDW)

Arrival

Time 2026-05-05 16:19
Airport Hamburg Helmut Schmidt Airport (EDDH)
Time Latitude Longitude Altitude Speed Heading
2026-05-05 15:35 53.05024 8.78132 21 ft 0 kts 48°
2026-05-05 15:39 53.05025 8.78133 21 ft 3 kts 48°
2026-05-05 15:39 53.05077 8.78119 21 ft 14 kts 327°
2026-05-05 15:39 53.05145 8.77982 20 ft 16 kts 265°
2026-05-05 15:40 53.05088 8.77839 20 ft 15 kts 227°
2026-05-05 15:40 53.05020 8.77720 21 ft 14 kts 226°
2026-05-05 15:40 53.04959 8.77613 22 ft 12 kts 227°
2026-05-05 15:40 53.04891 8.77517 21 ft 13 kts 210°
2026-05-05 15:41 53.04810 8.77463 24 ft 12 kts 192°
2026-05-05 15:41 53.04756 8.77454 23 ft 0 kts 180°
2026-05-05 15:42 53.04708 8.77462 22 ft 14 kts 158°
2026-05-05 15:42 53.04662 8.77604 20 ft 15 kts 87°
2026-05-05 15:42 53.04663 8.77623 20 ft 0 kts 86°
2026-05-05 15:42 53.04663 8.77624 20 ft 1 kts 86°
2026-05-05 15:43 53.04672 8.77994 20 ft 66 kts 88°
2026-05-05 15:43 53.04703 8.79010 61 ft 102 kts 88°
2026-05-05 15:43 53.04704 8.80229 229 ft 110 kts 85°
2026-05-05 15:43 53.04783 8.81520 378 ft 114 kts 73°
2026-05-05 15:44 53.05361 8.82309 518 ft 117 kts
2026-05-05 15:44 53.06165 8.82155 670 ft 119 kts 337°
2026-05-05 15:44 53.06747 8.81151 833 ft 123 kts 307°
2026-05-05 15:44 53.07235 8.79885 955 ft 137 kts 307°
2026-05-05 15:45 53.07780 8.78529 1109 ft 144 kts 307°
2026-05-05 15:45 53.08342 8.77106 1274 ft 150 kts 308°
2026-05-05 15:45 53.09071 8.75882 1433 ft 149 kts 333°
2026-05-05 15:45 53.10012 8.75175 1600 ft 149 kts 343°
2026-05-05 15:46 53.11014 8.74980 1751 ft 144 kts
2026-05-05 15:46 53.11950 8.75496 1901 ft 141 kts 32°
2026-05-05 15:46 53.12769 8.76370 2059 ft 139 kts 32°
2026-05-05 15:46 53.13593 8.77219 2213 ft 140 kts 33°
2026-05-05 15:47 53.14998 8.78691 2472 ft 140 kts 33°
2026-05-05 15:47 53.16117 8.79867 2504 ft 149 kts 32°
2026-05-05 15:47 53.18517 8.82389 2507 ft 154 kts 33°
2026-05-05 15:47 53.20335 8.84302 2498 ft 154 kts 33°
2026-05-05 15:48 53.22146 8.86212 2493 ft 154 kts 33°
2026-05-05 15:48 53.23951 8.88116 2493 ft 153 kts 32°
2026-05-05 15:48 53.25507 8.90508 2489 ft 153 kts 42°
2026-05-05 15:48 53.27064 8.92941 2496 ft 154 kts 43°
2026-05-05 15:49 53.28642 8.95434 2503 ft 158 kts 43°
2026-05-05 15:49 53.30242 8.97977 2487 ft 158 kts 43°
2026-05-05 15:49 53.31829 9.00494 2480 ft 157 kts 43°
2026-05-05 15:49 53.33400 9.03011 2473 ft 156 kts 47°
2026-05-05 15:50 53.34754 9.05842 2478 ft 156 kts 50°
2026-05-05 15:50 53.36127 9.08662 2476 ft 157 kts 50°
2026-05-05 15:50 53.37541 9.11433 2476 ft 156 kts 46°
2026-05-05 15:50 53.39015 9.14108 2479 ft 156 kts 47°
2026-05-05 15:51 53.40482 9.16792 2480 ft 156 kts 47°
2026-05-05 15:51 53.41927 9.19443 2477 ft 156 kts 47°
2026-05-05 15:51 53.43399 9.22136 2478 ft 157 kts 47°
2026-05-05 15:51 53.44869 9.24835 2478 ft 156 kts 47°
2026-05-05 15:52 53.46351 9.27554 2476 ft 156 kts 47°
2026-05-05 15:52 53.47790 9.30206 2481 ft 156 kts 47°
2026-05-05 15:52 53.49245 9.32887 2482 ft 156 kts 47°
2026-05-05 15:52 53.50712 9.35584 2482 ft 157 kts 47°
2026-05-05 15:53 53.51394 9.37252 2482 ft 157 kts 59°
2026-05-05 15:53 53.51966 9.38817 2482 ft 157 kts 56°
2026-05-05 15:53 53.52556 9.40383 2446 ft 160 kts 57°
2026-05-05 15:53 53.53152 9.41972 2394 ft 161 kts 57°
2026-05-05 15:54 53.53747 9.43570 2345 ft 161 kts 57°
2026-05-05 15:54 53.54346 9.45173 2296 ft 162 kts 57°
2026-05-05 15:54 53.54944 9.46782 2252 ft 163 kts 57°
2026-05-05 15:54 53.55550 9.48388 2195 ft 162 kts 57°
2026-05-05 15:55 53.56073 9.50054 2138 ft 162 kts 71°
2026-05-05 15:55 53.56217 9.51923 2086 ft 161 kts 84°
2026-05-05 15:55 53.56328 9.53801 2037 ft 162 kts 82°
2026-05-05 15:55 53.56438 9.55690 1961 ft 163 kts 83°
2026-05-05 15:56 53.56545 9.57601 1890 ft 165 kts 82°
2026-05-05 15:56 53.56647 9.59535 1813 ft 167 kts 83°
2026-05-05 15:56 53.56722 9.61462 1796 ft 163 kts 84°
2026-05-05 15:56 53.56806 9.63351 1799 ft 161 kts 84°
2026-05-05 15:57 53.56886 9.65213 1793 ft 159 kts 85°
2026-05-05 15:57 53.56678 9.67035 1792 ft 160 kts 105°
2026-05-05 15:57 53.56333 9.68804 1798 ft 159 kts 104°
2026-05-05 15:57 53.56102 9.70621 1798 ft 160 kts 97°
2026-05-05 15:58 53.55920 9.72467 1788 ft 160 kts 97°
2026-05-05 15:58 53.55730 9.74340 1664 ft 164 kts 97°
2026-05-05 15:58 53.55841 9.76214 1532 ft 163 kts 66°
2026-05-05 15:58 53.56461 9.77797 1401 ft 163 kts 47°
2026-05-05 15:59 53.57225 9.79132 1267 ft 151 kts 46°
2026-05-05 15:59 53.58011 9.80231 1124 ft 144 kts 39°
2026-05-05 15:59 53.58734 9.81164 1056 ft 114 kts 38°
2026-05-05 15:59 53.59269 9.81860 1010 ft 84 kts 39°
2026-05-05 16:00 53.59711 9.82421 1011 ft 77 kts 39°
2026-05-05 16:00 53.60136 9.82950 1009 ft 72 kts 39°
2026-05-05 16:00 53.60526 9.83422 1009 ft 69 kts 39°
2026-05-05 16:00 53.60795 9.84030 1003 ft 70 kts 93°
2026-05-05 16:01 53.60560 9.84758 1014 ft 69 kts 97°
2026-05-05 16:01 53.60422 9.85525 1023 ft 70 kts 104°
2026-05-05 16:01 53.60472 9.86294 1024 ft 68 kts 68°
2026-05-05 16:01 53.60585 9.87073 1026 ft 68 kts 72°
2026-05-05 16:02 53.60656 9.87866 1031 ft 70 kts 78°
2026-05-05 16:02 53.60715 9.88709 1024 ft 76 kts 79°
2026-05-05 16:02 53.60774 9.89622 979 ft 81 kts 81°
2026-05-05 16:02 53.60858 9.90570 918 ft 85 kts 79°
2026-05-05 16:03 53.60925 9.91603 834 ft 93 kts 85°
2026-05-05 16:03 53.60939 9.92700 735 ft 93 kts 85°
2026-05-05 16:03 53.60970 9.93784 633 ft 91 kts 78°
2026-05-05 16:03 53.61152 9.94787 523 ft 89 kts 63°
2026-05-05 16:04 53.61476 9.95669 418 ft 88 kts 52°
2026-05-05 16:04 53.61886 9.96457 320 ft 91 kts 49°
2026-05-05 16:04 53.62292 9.97255 218 ft 88 kts 52°
2026-05-05 16:04 53.62651 9.98037 195 ft 80 kts 51°
2026-05-05 16:05 53.63002 9.98753 197 ft 80 kts 50°
2026-05-05 16:05 53.63366 9.99489 193 ft 82 kts 50°
2026-05-05 16:05 53.63735 10.00230 195 ft 83 kts 50°
2026-05-05 16:05 53.64106 10.00974 252 ft 89 kts 50°
2026-05-05 16:06 53.64496 10.01992 268 ft 114 kts 79°
2026-05-05 16:06 53.64213 10.03229 419 ft 120 kts 132°
2026-05-05 16:06 53.63562 10.04083 558 ft 118 kts 139°
2026-05-05 16:06 53.62834 10.04695 681 ft 123 kts 174°
2026-05-05 16:07 53.62098 10.04012 805 ft 126 kts 233°
2026-05-05 16:07 53.61495 10.02959 939 ft 124 kts 219°
2026-05-05 16:07 53.60894 10.01888 1008 ft 130 kts 229°
2026-05-05 16:07 53.60275 10.00721 1012 ft 137 kts 229°
2026-05-05 16:08 53.59635 9.99511 1012 ft 141 kts 227°
2026-05-05 16:08 53.58944 9.98327 1006 ft 143 kts 211°
2026-05-05 16:08 53.58006 9.98186 994 ft 137 kts 152°
2026-05-05 16:08 53.57379 9.99230 989 ft 124 kts 104°
2026-05-05 16:09 53.57512 10.00553 997 ft 116 kts 58°
2026-05-05 16:09 53.58120 10.01322 994 ft 116 kts 10°
2026-05-05 16:09 53.58866 10.00834 999 ft 124 kts 317°
2026-05-05 16:09 53.59218 9.99493 1008 ft 130 kts 279°
2026-05-05 16:10 53.58924 9.98089 1004 ft 132 kts 224°
2026-05-05 16:10 53.58182 9.97221 1000 ft 129 kts 193°
2026-05-05 16:10 53.57346 9.97360 996 ft 118 kts 152°
2026-05-05 16:10 53.56740 9.98186 991 ft 111 kts 107°
2026-05-05 16:11 53.56779 9.99400 1012 ft 100 kts 62°
2026-05-05 16:11 53.57875 9.98726 996 ft 102 kts 262°
2026-05-05 16:12 53.57400 9.97922 1009 ft 100 kts 194°
2026-05-05 16:12 53.56766 9.99103 1003 ft 81 kts 55°
2026-05-05 16:13 53.57434 9.97484 1001 ft 101 kts 229°
2026-05-05 16:13 53.56794 9.97147 1007 ft 101 kts 160°
2026-05-05 16:13 53.56400 9.97963 1008 ft 92 kts 82°
2026-05-05 16:14 53.57390 9.98349 1006 ft 97 kts 319°
2026-05-05 16:14 53.58017 9.96350 1001 ft 103 kts 268°
2026-05-05 16:15 53.57021 9.95121 995 ft 101 kts 144°
2026-05-05 16:15 53.57210 9.96600 1006 ft 87 kts
2026-05-05 16:16 53.58069 9.95061 1009 ft 105 kts 290°
2026-05-05 16:16 53.58646 9.92850 877 ft 102 kts 326°
2026-05-05 16:17 53.59831 9.93433 674 ft 93 kts 24°
2026-05-05 16:17 53.60389 9.93865 555 ft 85 kts 26°
2026-05-05 16:18 53.61231 9.95145 314 ft 82 kts 48°
2026-05-05 16:18 53.61602 9.95896 228 ft 86 kts 51°
2026-05-05 16:18 53.62302 9.97311 50 ft 67 kts 51°
2026-05-05 16:19 53.62564 9.97858 44 ft 53 kts 50°
2026-05-05 16:19 53.62773 9.98303 47 ft 23 kts 80°
2026-05-05 16:19 53.62677 9.98506 45 ft 13 kts 83°
2026-05-05 16:20 53.62702 9.98656 45 ft 8 kts 149°
2026-05-05 16:20 53.62641 9.98761 45 ft 0 kts 59°